SKYSAT-C1

Last updated on Thu Oct 30 2025 00:02:31 GMT+0000 (Coordinated Universal Time)

1 41601U 16040C 25302.37120669 .00012504 00000+0 41391-3 0 9991 2 41601 96.9894 341.9055 0004361 115.0245 245.1450 15.31432806522483
UTC large
Height (km)
Speed (km/s)
/
Latitude / Longitude
Inclination (degrees)
Orbital Period (minutes)
Azimuth
Elevation
Range (km)
Doppler Factor

Next 0 passes for location: London (51.5072 / 0.1276)

Sorry there are no passes over London.